METEOR 1-10 DEB, 8826

Orbit data source: Space-Track

METEOR 1-10 DEB, 8826 is space debris in LEO originally from a launch on Wed, 29 Dec 1971 UTC launched from the Plesetsk Missile And Space Complex (PKMTR). Debris objects in space refer to the collection of defunct objects orbiting the Earth. Examples of debris include non-operational satellites, rocket bodies, and fragments generated from explosions, collisions, or faulty payload assembly.

Loading next visibility...
Identifier
8826, 1971-120C
Orbit
LEO
Country
Flag of CISCIS
Related business
Manufacturer
Unknown
Mission
Spacecraft
Bus & Motor
Unknown
Mass
Unknown
Launch date (UTC)
1971-12-29 (54 years ago)
Launch vehicle
Unknown
Launch site
Plesetsk Missile And Space Complex (PKMTR)
Object type
Payload
Rocket body
Debris
Shape & HBR
Unknown shape, 0.8 m
Radar Cross Section
Medium (>0.1 m² and <1 m²)

Expand to show TLE details & history
Last TLE update: 2 days ago

TLE from 2 days ago
0 METEOR 1-10 DEB
1  8826U 71120C   26171.42262675  .00002505  00000-0  27533-3 0  9991
2  8826  81.2282 295.9663 0013246  93.4562 266.8166 14.87294662850843
Epoch: 2026-06-20T10:08Z
TLE epoch observation values (Epoch: 2026-06-20T10:08:34.951Z)
Latitude
-0.00006°
Longitude
-124.81681°
Altitude
609.923 km
Speed
7.554 km/s
True Right ascension
19h 43m 51s
True Declination
0° 00' 00"
Sunlit
Object was in full shadow at epoch
Visualization orbit readout
Latitude
Unknown
Longitude
Unknown
Altitude
Unknown
Speed
Unknown
Apparent Right ascension
Unknown
Apparent Declination
Unknown
Sunlit
N/A
Visualization observer readout
Local Sidereal Time
23:08:25
Azimuth
Unknown
Elevation
Unknown
Doppler factor
Unknown
Orbital elements
Apogee altitude
612.713 km
Perigee altitude
594.217 km
Semi-major axis
6,981.602 km
Eccentricity
0.00132
Inclination
81.2282°
RAAN
295.9663°
Arg. of periapsis
93.4562°
True anomaly
266.66506°
Mean anomaly
266.8166°
Eccentric anomaly
266.74083°
Mean motion
3.72058 °/min
Orbital period
96.76 mins
BSTAR
0.00027533
Loading maneuver chart data...
Computing Atmospheric mass density...

Documentation

Showing up to 5 results
|